www.pogodaiklimat.ru
ПОГОДА в Пудасъярви
Время
(UTC), дата
07 30.11
08 30.11
09 30.11
10 30.11
11 30.11
12 30.11
13 30.11
14 30.11
15 30.11
16 30.11
17 30.11
19 30.11
20 30.11
21 30.11
22 30.11
23 30.11
00 1.12
01 1.12
02 1.12
03 1.12
04 1.12
05 1.12
06 1.12
07 1.12
08 1.12
09 1.12
10 1.12
11 1.12
12 1.12
13 1.12
14 1.12
15 1.12
16 1.12
17 1.12
19 1.12
20 1.12
21 1.12
22 1.12
23 1.12
00 2.12
01 2.12
02 2.12
03 2.12
04 2.12
05 2.12
07 2.12
08 2.12
09 2.12
10 2.12
11 2.12
12 2.12
13 2.12
14 2.12
15 2.12
16 2.12
17 2.12
18 2.12
19 2.12
20 2.12
21 2.12
22 2.12
23 2.12
00 3.12
01 3.12
02 3.12
03 3.12
04 3.12
05 3.12
06 3.12
07 3.12
08 3.12
09 3.12
10 3.12
11 3.12
12 3.12
13 3.12
14 3.12
15 3.12
16 3.12
17 3.12
19 3.12
20 3.12
21 3.12
22 3.12
23 3.12
00 4.12
01 4.12
02 4.12
03 4.12
04 4.12
05 4.12
06 4.12
07 4.12
08 4.12
09 4.12
10 4.12
11 4.12
12 4.12
13 4.12
14 4.12
15 4.12
16 4.12
17 4.12
18 4.12
19 4.12
20 4.12
21 4.12
22 4.12
23 4.12
00 5.12
01 5.12
02 5.12
03 5.12
04 5.12
05 5.12
06 5.12
07 5.12
08 5.12
09 5.12
10 5.12
11 5.12
12 5.12
13 5.12
14 5.12
15 5.12
16 5.12
17 5.12
18 5.12
19 5.12
20 5.12
21 5.12
22 5.12
23 5.12
00 6.12
01 6.12
02 6.12
03 6.12
04 6.12
05 6.12
06 6.12
07 6.12
08 6.12
09 6.12
10 6.12
11 6.12
12 6.12
13 6.12
14 6.12
15 6.12
16 6.12
17 6.12
18 6.12
19 6.12
20 6.12
21 6.12
22 6.12
23 6.12
00 7.12
01 7.12
02 7.12
03 7.12
04 7.12
05 7.12
06 7.12
07 7.12
08 7.12
Ветер
(напр.,м/с)
Видим. Явления Облачность Т
(С)
Тd
(С)
f
(%)
Тe
(С)
Тes
(С)
Комфортность P
(гПа)
Po
(гПа)
Тmin
(С)
Tmax
(С)
R
(мм)
R24
(мм)
S
(см)
З 4-7
{7}
50 км 9/9 600 м
[]
-7.3 -7.8 96 -14 -14 очень
холодно
990.5 975.1
З 4-5
{6}
50 км слаб. ливневой снег 9/9 600 м
[]
-7.7 -8.3 95 -15 -15 очень
холодно
991.2 975.8
З 3-5
{5}
50 км {ливн. осадки, снег} 9/4 1500 м
[]
-7.5 -8.1 95 -13 -13 очень
холодно
992.1 976.7
З 3-5
{6}
45 км 9/1 1500 м
[]
-7.0 -7.6 95 -13 -13 очень
холодно
992.6 977.2
З 2-4
{5}
50 км ясно -7.8 -8.3 96 -12 -12 очень
холодно
993.4 978.0
З 2-4
{5}
50 км {ливн. осадки, снег} 4/0
[]
-9.2 -9.9 95 -14 -14 очень
холодно
994.4 978.9
З 2-4
{4}
50 км 9/9 2000 м
[]
-9.4 -10.0 95 -14 -14 очень
холодно
995.0 979.4
З 3-5
{5}
45 км 9/6 1500 м
[]
-9.1 -9.7 95 -15 -15 очень
холодно
995.6 980.1
З 2-4
{5}
40 км 1/0
[]
-9.2 -9.9 95 -14 -14 очень
холодно
996.3 980.7
З 2-3
{4}
45 км ясно -10.7 -11.6 93 -15 -15 очень
холодно
996.7 981.0
З 2-3
{4}
45 км ясно -11.3 -12.1 94 -16 -16 очень
холодно
997.2 981.4
Ю 2-3
{3}
45 км ясно -13.4 -14.4 92 -18 -18 очень
холодно
997.3 981.4
Ю 3-4
{4}
50 км 4/4
[]
-14.1 -15.2 91 -21 -21 очень
холодно
996.8 981.0
Ю 3-5
{5}
45 км 4/4 600 м
[]
-13.5 -14.5 92 -20 -20 очень
холодно
996.1 980.3
Ю 3-5
{5}
50 км в посл. час зёрна 1/0 300 м
[]
-12.9 -13.9 92 -19 -19 очень
холодно
995.4 979.6
Ю 3-4
{5}
30 км слаб. ливневой снег 6/1 600 м
[]
-12.5 -13.5 92 -19 -19 очень
холодно
995.2 979.5
Ю 2-2
{3}
50 км в посл. час переохл. осадки (гололёд) 6/1 1500 м
[]
-13.5 -14.6 91 -18 -18 очень
холодно
995.2 979.4
Ю 2-4
{4}
30 км слаб. снег 9/9 1000 м
[]
-11.6 -12.5 93 -16 -16 очень
холодно
995.1 979.4
ЮЗ 2-4
{5}
9000 м слаб. ливневой снег 9/6 600 м
[]
-8.7 -9.4 95 -13 -13 очень
холодно
994.0 978.5
ЮЗ 2-3
{4}
50 км {ливн. осадки, снег} ясно -10.0 -10.8 94 -15 -15 очень
холодно
994.0 978.4
Ю 2-4
{4}
50 км 9/9
[]
-10.7 -11.5 94 -15 -15 очень
холодно
993.8 978.2
Ю 3-4
{4}
50 км 9/9
[]
-11.6 -12.5 93 -18 -18 очень
холодно
993.4 977.7
Ю 3-5
{5}
50 км {ливн. осадки, снег} 4/0
[]
-12.2 -13.1 93 -18 -18 очень
холодно
992.7 977.0 -14.5 -8.6 31
Ю 2-3
{6}
40 км слаб. ливневой снег 4/1 600 м
[]
-12.8 -13.8 92 -17 -17 очень
холодно
992.5 976.8
Ю 4-5
{6}
50 км 4/0
[]
-11.6 -12.5 93 -19 -19 очень
холодно
991.7 976.1
Ю 4-5
{6}
50 км {ливн. осадки, снег} 4/0 600 м
[]
-10.4 -11.2 94 -17 -17 очень
холодно
991.5 975.9
Ю 4-7
{7}
50 км 9/0
[]
-9.1 -9.9 94 -16 -16 очень
холодно
990.6 975.2
Ю 3-6
{7}
50 км 6/1 1500 м
[]
-7.9 -8.4 96 -14 -14 очень
холодно
990.2 974.8
ЮЗ 5-7
{8}
50 км {ливн. осадки, снег} ясно -6.9 -7.4 96 -15 -15 очень
холодно
989.7 974.3
Ю 5-8
{9}
50 км ясно -7.2 -7.7 96 -15 -15 очень
холодно
989.1 973.8
Ю 4-7
{8}
50 км 1/0 2000 м
[]
-7.0 -7.5 96 -14 -14 очень
холодно
988.9 973.6
ЮЗ 5-8
{8}
22 км слаб. ливневой снег 6/1 1500 м
[]
-6.0 -6.3 98 -14 -14 очень
холодно
988.6 973.4
Ю 5-7
{8}
28 км слаб. снег 10/6 1000 м
[]
-5.4 -5.8 97 -13 -13 очень
холодно
988.3 973.0
Ю 5-8
{8}
50 км 9/1 600 м
[]
-6.0 -6.4 97 -13 -13 очень
холодно
988.2 973.0
ЮЗ 4-6
{8}
1000 м снег ?/? -4.7 -4.8 99 -11 -11 очень
холодно
987.7 972.5 0.3
ЮЗ 4-7
{7}
3400 м слаб. снег 10/10 600 м
[]
-3.1 -3.2 99 -9 -9 очень
холодно
987.4 972.3 0.3
З 5-9
{10}
6000 м слаб. снег 10/10 600 м
[]
-2.6 -3.0 97 -10 -10 очень
холодно
987.3 972.2 0.1
ЮЗ 5-9
{10}
5000 м слаб. снег 10/10 300 м
[]
-2.6 -2.9 98 -10 -10 очень
холодно
987.2 972.2 0.2
З 5-10
{10}
1100 м слаб. снег ?/? -2.7 -3.1 97 -10 -10 очень
холодно
987.5 972.5 0.1
З 5-9
{9}
50 км слаб. снег 9/4 1000 м
[]
-2.8 -3.3 96 -10 -10 очень
холодно
987.7 972.6 0.1
З 4-7
{8}
50 км 9/9
[]
-3.2 -3.8 96 -10 -10 очень
холодно
987.8 972.7
З 4-7
{8}
50 км 1/0
[]
-3.7 -4.5 94 -10 -10 очень
холодно
988.1 972.9
З 4-7
{9}
50 км {снег} 4/1 600 м
[]
-4.1 -5.4 91 -10 -10 очень
холодно
988.7 973.5
З 4-6
{8}
50 км 9/0 600 м
[]
-3.9 -5.5 89 -10 -10 очень
холодно
989.2 974.0
З 4-6
{7}
50 км 9/9 2000 м
[]
-4.6 -5.9 91 -11 -11 очень
холодно
989.9 974.7
ЮЗ 2-3
{5}
50 км ясно -6.8 -7.4 95 -11 -11 очень
холодно
991.0 975.7
ЮЗ 3-6
{6}
50 км 1/0
[]
-6.4 -7.2 94 -12 -12 очень
холодно
991.3 976.0
ЮЗ 4-7
{7}
50 км 6/0
[]
-5.3 -6.3 93 -12 -12 очень
холодно
991.5 976.3
З 4-8
{9}
45 км 9/9
[]
-4.3 -5.6 91 -11 -11 очень
холодно
991.6 976.4
З 4-7
{8}
50 км 9/1 1000 м
[]
-4.0 -5.6 89 -10 -10 очень
холодно
991.5 976.3
З 4-7
{8}
22 км слаб. снег {туман} 10/9 600 м
[]
-3.7 -5.0 91 -10 -10 очень
холодно
991.6 976.4
З 5-9
{9}
5000 м слаб. ливневой снег 10/10 600 м
[]
-3.0 -4.9 87 -10 -10 очень
холодно
991.9 976.8
З 4-6
{12}
50 км в посл. час снег 10/10 1000 м
[]
-2.8 -5.0 85 -9 -9 очень
холодно
992.2 977.0
З 5-9
{9}
50 км {ливн. осадки, снег} 9/9
[]
-3.0 -5.2 85 -10 -10 очень
холодно
992.6 977.5
З 6-9
{9}
50 км 9/0
[]
-3.4 -5.4 86 -11 -11 очень
холодно
993.1 978.0
З 7-9
{9}
50 км 9/9
[]
-3.8 -5.6 87 -12 -12 очень
холодно
994.0 978.8
З 6-7
{8}
50 км {ливн. осадки, снег} 9/0
[]
-4.4 -6.1 88 -12 -12 очень
холодно
995.0 979.7 -7.0 -2.7
З 6-7
{8}
50 км 10/10
[]
-4.4 -6.1 88 -12 -12 очень
холодно
995.8 980.5
З 6-8
{8}
50 км 1/0
[]
-5.1 -6.9 87 -13 -13 очень
холодно
996.1 980.8
З 7-9
{9}
50 км 4/0
[]
-4.8 -6.7 87 -13 -13 очень
холодно
997.0 981.7
СЗ 5-7
{8}
50 км 1/0
[]
-4.8 -6.7 87 -12 -12 очень
холодно
997.6 982.3
З 6-7
{8}
50 км 6/0
[]
-5.0 -6.8 87 -13 -13 очень
холодно
997.9 982.5
З 5-7
{8}
50 км 1/0
[]
-4.6 -6.6 86 -12 -12 очень
холодно
998.5 983.2
З 6-8
{9}
50 км ясно -4.9 -6.9 86 -13 -13 очень
холодно
999.0 983.7
З 5-7
{8}
50 км 1/0
[]
-5.6 -7.4 87 -13 -13 очень
холодно
999.5 984.1
СЗ 5-8
{8}
50 км 1/0
[]
-5.6 -7.5 86 -13 -13 очень
холодно
999.7 984.3
З 6-7
{8}
50 км 9/0
[]
-5.8 -7.5 88 -14 -14 очень
холодно
999.9 984.4
З 4-5
{7}
50 км 6/0
[]
-7.3 -8.2 93 -14 -14 очень
холодно
1000.1 984.5
З 3-4
{5}
50 км 6/1
[]
-6.8 -8.0 91 -13 -13 очень
холодно
1000.0 984.5 -8.0 -4.3 34
З 3-5
{6}
50 км 9/9
[]
-6.3 -7.4 92 -12 -12 очень
холодно
1000.4 984.9
З 3-5
{5}
50 км 9/1
[]
-6.6 -7.8 91 -12 -12 очень
холодно
1000.6 985.1
З 1-3
{5}
50 км 9/0
[]
-7.1 -8.3 91 -10 -10 очень
холодно
1000.4 984.9
ЮЗ 2-3
{3}
50 км 9/9
[]
-7.7 -8.7 93 -12 -12 очень
холодно
1000.5 985.0
ЮЗ 1-2
{3}
45 км 6/6
[]
-7.3 -8.4 92 -10 -10 очень
холодно
1000.5 985.0
Ю 2-3
{3}
50 км 9/9
[]
-7.1 -7.4 98 -12 -12 очень
холодно
1000.0 984.5
Ю 2-3
{3}
45 км 4/0
[]
-8.5 -9.0 96 -13 -13 очень
холодно
999.5 983.9
Ю 3-3
{3}
19 км 1/0
[]
-8.6 -8.9 98 -15 -15 очень
холодно
999.3 983.7
Ю 3-4
{5}
40 км 9/9
[]
-7.4 -7.8 97 -13 -13 очень
холодно
998.5 983.0
ЮВ 2-4
{5}
40 км 10/10
[]
-6.8 -7.2 97 -11 -11 очень
холодно
997.5 982.1
Ю 2-3
{4}
40 км 9/1 100 м
[]
-6.5 -6.8 98 -11 -11 очень
холодно
997.2 981.8
ЮВ 3-4
{4}
3500 м слаб. снег 10/10 200 м
[]
-5.7 -6.0 98 -11 -11 очень
холодно
995.5 980.2
ЮВ 3-4
{4}
2100 м слаб. снег ?/? -5.2 -5.6 97 -11 -11 очень
холодно
994.7 979.4 0.3
ЮВ 4-6
{6}
3500 м слаб. снег 10/10 300 м
[]
-4.8 -5.1 98 -11 -11 очень
холодно
993.8 978.5 0.2
ЮВ 3-5
{5}
2000 м слаб. снег 10/10 600 м
[]
-4.3 -4.6 98 -10 -10 очень
холодно
993.4 978.1 0.4
Ю 3-4
{5}
3100 м слаб. ледяной дождь 10/10 600 м
[]
-3.8 -3.9 99 -9 -9 очень
холодно
992.4 977.2 0.5
ЮВ 3-4
{4}
3400 м слаб. снег 10/10 200 м
[]
-3.3 -3.5 99 -9 -9 очень
холодно
991.8 976.6 0.2
ЮВ 2-3
{5}
2300 м слаб. снег 10/10 200 м
[]
-3.1 -3.2 99 -7 -7 холодно 990.8 975.7 0.5
Ю 3-4
{4}
3100 м слаб. снег 10/10 100 м
[]
-2.6 -2.6 100 -8 -8 очень
холодно
990.3 975.2 0.5
ЮВ 2-4
{4}
2200 м слаб. снег {дождь} 10/10 50 м
[]
-2.1 -2.1 100 -6 -6 холодно 989.7 974.6 0.8
ЮВ 2-4
{4}
3300 м слаб. снег 10/10 50 м
[]
-1.7 -1.7 100 -6 -6 холодно 989.1 974.1 0.6
Ю 2-3
{4}
3400 м снежные зёрна 10/0 50 м
[]
-1.3 -1.3 100 -5 -5 холодно 989.0 974.0 0.2
Ю 2-3
{3}
4700 м снежные зёрна {дождь} 10/10 <50 м
[]
-0.9 -0.9 100 -5 -5 холодно 989.2 974.2 -6.7 -0.9 0.1 <0.5
Ю 2-2
{3}
1100 м в посл. час осадки ?/? -0.5 -0.5 100 -5 -5 холодно 989.4 974.4
Ю 2-2
{3}
400 м туман ?/? +0.1 +0.1 100 -4 -4 прохладно 989.6 974.6
ЮЗ 2-4
{4}
1300 м в посл. час дождь ?/? +0.3 +0.3 100 -4 -4 прохладно 989.8 974.8 0.1
ЮЗ 2-4
{4}
1700 м дымка 10/0 50 м
[]
+0.6 +0.6 100 -3 -3 прохладно 990.0 975.1 0.1
ЮЗ 3-5
{5}
15 км 10/10 50 м
[]
+0.9 +0.9 100 -4 -4 прохладно 990.8 975.9
ЮЗ 1-2
{4}
500 м туман ?/? +0.6 +0.6 100 -2 -2 по сезону 990.6 975.7
ЮЗ 2-4
{4}
700 м туман ?/? +0.6 +0.6 100 -3 -3 прохладно 990.8 975.9
ЮЗ 2-3
{4}
50 км в посл. час туман 9/9 50 м
[]
+0.8 +0.8 100 -3 -3 прохладно 991.2 976.3
ЮЗ 2-4
{4}
50 км {метель} 9/0
[]
+1.3 +1.3 100 -2 -2 по сезону 991.5 976.6
ЮЗ 2-4
{4}
50 км 4/1
[]
+1.2 +1.2 100 -3 -3 прохладно 991.7 976.8
ЮЗ 3-4
{5}
50 км 6/0
[]
+1.6 +1.6 100 -3 -3 прохладно 992.2 977.3
ЮЗ 3-6
{6}
50 км {метель} 9/1
[]
+1.9 +1.8 99 -3 -3 прохладно 992.3 977.4 -0.9 +2.0
ЮЗ 3-5
{5}
50 км 9/6
[]
+1.6 +1.6 100 -3 -3 прохладно 992.2 977.3
ЮЗ 3-5
{5}
50 км 9/9
[]
+1.9 +1.9 100 -3 -3 прохладно 992.5 977.6
Ю 3-5
{5}
50 км 9/1 1500 м
[]
+1.9 +1.8 99 -3 -3 прохладно 992.2 977.3
Ю 2-5
{5}
50 км 1/0
[]
+1.1 +1.1 100 -3 -3 прохладно 991.7 976.8
Ю 2-3
{4}
40 км ясно +0.8 +0.8 100 -3 -3 прохладно 991.1 976.2
Ю 3-5
{6}
35 км 9/1 50 м
[]
+1.1 +1.1 100 -4 -4 прохладно 990.3 975.4
Ю 3-5
{6}
24 км слаб. морось 9/9 50 м
[]
+1.5 +1.5 100 -3 -3 прохладно 989.3 974.4
Ю 4-6
{6}
21 км ливневой дождь 10/4 1000 м
[]
+1.7 +1.7 100 -4 -4 прохладно 988.1 973.3
Ю 4-6
{6}
23 км ливневой дождь 9/9 100 м
[]
+2.1 +2.0 99 -3 -3 прохладно 986.9 972.1
ЮЗ 4-6
{6}
13 км слаб. дождь 10/10 100 м
[]
+1.9 +1.8 99 -3 -3 прохладно 986.1 971.3
ЮЗ 4-7
{7}
14 км слаб. дождь 9/9 50 м
[]
+1.7 +1.7 100 -4 -4 прохладно 985.4 970.6 0.8
ЮЗ 5-9
{9}
9000 м в посл. час дождь со снегом {ливн. осадки} 9/9 50 м
[]
+1.7 +1.7 100 -4 -4 прохладно 984.8 970.0 +0.6 +2.2 0.2 <0.5
ЮЗ 4-8
{9}
3500 м дымка 9/0 50 м
[]
+1.6 +1.6 100 -4 -4 прохладно 985.0 970.3
ЮЗ 3-5
{8}
24 км 9/9 50 м
[]
+1.9 +1.9 100 -3 -3 прохладно 985.0 970.2
ЮЗ 4-6
{9}
26 км 9/9 50 м
[]
+1.9 +1.8 99 -3 -3 прохладно 984.6 969.8
ЮЗ 4-6
{8}
30 км 9/9 100 м
[]
+2.0 +1.6 97 -3 -3 прохладно 984.3 969.5
ЮЗ 3-5
{7}
40 км 9/9 200 м
[]
+1.7 +1.3 97 -3 -3 прохладно 984.2 969.4
Ю 3-6
{6}
50 км ясно +1.1 +0.7 97 -4 -4 прохладно 983.5 968.7
Ю 3-6
{6}
45 км ясно +0.5 +0.3 99 -4 -4 прохладно 982.9 968.1
Ю 3-5
{6}
35 км 4/1 50 м
[]
-0.3 -0.3 100 -5 -5 холодно 982.1 967.3
Ю 3-6
{6}
45 км 9/9 100 м
[]
-0.1 -0.1 100 -5 -5 холодно 981.7 966.9
Ю 4-6
{8}
50 км 9/9 100 м
[]
+0.6 +0.4 99 -5 -5 холодно 981.1 966.3
Ю 4-6
{9}
50 км 9/9 100 м
[]
+0.8 +0.5 98 -5 -5 холодно 980.5 965.8
Ю 4-7
{8}
50 км 9/9 200 м
[]
+1.2 +0.4 94 -4 -4 прохладно 979.6 964.9 -0.6 +2.1
Ю 4-7
{7}
50 км 9/9 300 м
[]
+1.3 +0.4 94 -4 -4 прохладно 979.0 964.3
Ю 4-7
{7}
50 км 9/9 300 м
[]
+1.4 +0.3 92 -4 -4 прохладно 978.3 963.6
Ю 4-7
{8}
50 км 9/9 300 м
[]
+1.4 +0.3 92 -4 -4 прохладно 978.1 963.3
Ю 4-7
{7}
15 км слаб. морось 9/9 200 м
[]
+1.3 +0.6 95 -4 -4 прохладно 977.5 962.8
Ю 3-5
{7}
6000 м слаб. ливневой дождь 9/9 100 м
[]
+0.9 +0.7 99 -4 -4 прохладно 977.1 962.4
ЮЗ 4-7
{9}
35 км слаб. ливневой снег {морось} 9/9 100 м
[]
+0.7 +0.5 99 -5 -5 холодно 977.2 962.5 0.5
ЮЗ 4-6
{6}
50 км в посл. час дождь 9/9 200 м
[]
+0.7 +0.4 98 -5 -5 холодно 977.2 962.5
ЮЗ 4-6
{8}
50 км 1/0 300 м
[]
-0.1 -0.4 98 -6 -6 холодно 977.7 962.9
ЮЗ 3-6
{7}
50 км {ливн. осадки} 9/9 1000 м
[]
-0.4 -0.9 96 -5 -5 холодно 978.2 963.4
ЮЗ 3-5
{7}
50 км ясно -1.4 -1.6 99 -7 -7 холодно 978.8 963.9
Ю 3-4
{5}
50 км ясно -2.1 -2.3 99 -7 -7 холодно 979.1 964.2
Ю 2-3
{4}
30 км {ливн. осадки} ясно -3.2 -3.2 100 -8 -8 очень
холодно
979.5 964.5 -3.2 +1.5 <0.5
Ю 3-5
{5}
40 км ясно -3.2 -3.2 100 -9 -9 очень
холодно
979.8 964.8
Ю 3-4
{4}
40 км ясно -3.4 -3.4 100 -9 -9 очень
холодно
980.1 965.1
Ю 3-5
{6}
45 км 4/4 50 м
[]
-3.1 -3.2 99 -9 -9 очень
холодно
980.7 965.7
Ю 3-4
{6}
40 км 6/0 50 м
[]
-3.2 -3.2 100 -9 -9 очень
холодно
980.8 965.8
Ю 3-5
{6}
1600 м дымка 10/0 50 м
[]
-2.9 -2.9 100 -8 -8 очень
холодно
981.0 966.0
Ю 3-4
{5}
4000 м дымка 10/0 50 м
[]
-2.4 -2.4 100 -8 -8 очень
холодно
981.1 966.2
Ю 2-4
{5}
1400 м дымка 10/0 50 м
[]
-2.2 -2.2 100 -6 -6 холодно 981.4 966.5
Ю 2-3
{4}
1500 м дымка 10/0 50 м
[]
-2.1 -2.1 100 -6 -6 холодно 981.5 966.6
ЮВ 2-4
{5}
1700 м дымка 10/10 <50 м
[]
-1.9 -1.9 100 -6 -6 холодно 981.7 966.8
Ю 2-4
{4}
2000 м дымка 10/10 50 м
[]
-1.8 -1.8 100 -6 -6 холодно 982.0 967.1
Ю 2-3
{4}
3000 м снежные зёрна 10/10 50 м
[]
-1.8 -1.8 100 -6 -6 холодно 982.3 967.4
Ю 3-4
{6}
6000 м дымка {ливн. осадки, снег} 10/10 50 м
[]
-2.1 -2.1 100 -7 -7 холодно 982.5 967.6 -3.7 -1.7
Ю 3-4
{5}
6000 м дымка 10/10 50 м
[]
-2.1 -2.1 100 -7 -7 холодно 982.9 967.9
Ю 3-4
{4}
6000 м осадки 10/10 50 м
[]
-2.1 -2.1 100 -7 -7 холодно 983.4 968.4
Ю 2-3
{4}
9000 м слаб. снег {туман} 10/10 200 м
[]
-2.4 -2.4 100 -7 -7 холодно 983.7 968.7
Ю 2-3
{4}
30 км в посл. час снег 9/9 300 м
[]
-2.7 -2.7 100 -7 -7 холодно 983.7 968.7
ЮВ 2-3
{4}
6000 м слаб. снег 9/9 300 м
[]
-2.9 -2.9 100 -7 -7 холодно 983.7 968.7
Ю 3-5
{5}
5000 м слаб. снег 10/10 50 м
[]
-2.0 -2.0 100 -7 -7 холодно 983.8 968.8
Ю 2-4
{6}
7000 м дымка 10/0 50 м
[]
-1.5 -1.5 100 -6 -6 холодно 984.1 969.1
Ю 3-6
{6}
12 км 10/10 50 м
[]
-1.1 -1.1 100 -6 -6 холодно 984.0 969.1
Ю 3-5
{6}
9000 м дымка {снег} 10/10 50 м
[]
-1.0 -1.0 100 -6 -6 холодно 984.0 969.1
Ю 3-5
{6}
6000 м дымка 10/10 50 м
[]
-0.6 -0.6 100 -6 -6 холодно 984.1 969.2
Ю 4-8
{8}
10 км 10/10 50 м
[]
-0.3 -0.3 100 -6 -6 холодно 983.9 969.0
Ю 5-8
{8}
40 км {снег} 10/10 100 м
[]
-0.4 -0.6 99 -7 -7 холодно 984.4 969.5 -3.0 -0.2 <0.5
Ю 4-6
{9}
50 км 10/10 100 м
[]
-0.4 -0.6 99 -6 -6 холодно 984.5 969.6
Ю 4-7
{7}
50 км 10/10 200 м
[]
-0.3 -0.7 97 -6 -6 холодно 984.6 969.7
Местоположение метеостанции Пудасъярви (Финляндия): широта 65.40 долгота 26.96 высота над уровнем моря 120 м.
В архиве по умолчанию представлена погода в Пудасъярви за последнюю неделю. Архивные данные за месяц целиком и за предыдущие месяцы, начиная с января 2011 года, Вы можете получить, выбрав интересующий диапазон дат из раскрывающегося списка и нажав кнопку "Найти!".
*Определитесь, кто Вы:
Внимание! Время в таблицах - всемирное. Для получения местного времени необходимо прибавить поправку, которая равна 1 ч.
Смотрите также архив погоды в соседних городах и на ближайших метеорологических станциях:
Партнеры нашего сайта:      
Пояснения к столбцам:
  • Ветер - указаны скорость ветра в м/с - средняя за 10 мин, порывы в срок и между сроками (в фигурных скобках) и направление, откуда дует ветер: С - северный,
  • СВ - северо-восточный, В - восточный, ЮВ - юго-восточный, Ю - южный, ЮЗ - юго-западный, З - западный, СЗ - северо-западный.
  • Видимость - горизонтальная дальность видимости в метрах или километрах. При видимости от 1 до 10 км при отсутствии осадков обычно наблюдается дымка, при ухудшении видимости до 1 км и менее - туман. В сухую погоду видимость может ухудшаться дымом, пылью или мглою.
  • Явления - указаны атмосферные явления, наблюдавшиеся в срок или в последний час перед сроком; фигурными скобками обозначены явления, наблюдавшиеся между сроками (за 1-3 часа до срока); квадратными скобками обозначены град или гололедные отложения с указанием их диаметра в мм.
  • Облачность - указаны через наклонную черту общая и нижняя облачность в баллах и высота нижней границы облаков в метрах; квадратными скобками обозначены формы облаков: Ci - перистые, Cs - перисто-слоистые, Cc - перисто-кучевые, Ac - высококучевые, As - высокослоистые, Sc - слоисто-кучевые, Ns - слоисто-дождевые, Cu - кучевые, Cb - кучево-дождевые. Подробнее классификацию облаков см. в Атласе облаков (PDF).
  • T - Температура воздуха - температура, измеренная на высоте 2 м над землей.
  • Td - Температура точки росы - температура, при понижении до которой содержащийся в воздухе водяной пар достигнет насыщения.
  • f - Относительная влажность воздуха - влажноcть воздуха, измеренная на высоте 2 м над землей.
  • Te - Эффективная температура - температура, которую ощущает одетый по сезону человек в тени. Характеристика душности погоды. При расчете учитывается влияние влажности воздуха и скорости ветра на теплоощущения человека.
  • Tes - Эффективная температура на солнце - температура, которую ощущает человек, с поправкой на солнечный нагрев. Характеристика знойности погоды. Зависит от высоты солнца над горизонтом, облачности и скорости ветра. Ночью, в пасмурную погоду, а также при ветре 12 м/с и более поправка равна нулю.
  • P - Атмосферное давление - приведенное к уровню моря атмосферное давление.
  • Po - Атмосферное давление - измеренное на уровне метеостанции атмосферное давление.
  • Tmin - Минимальная температура - минимум температуры воздуха на высоте 2 м над землей.
  • Tmax - Максимальная температура - максимум температуры воздуха на высоте 2 м над землей.
  • R - Количество осадков - Количество выпавших осадков за период времени, мм. При наведении курсора мыши на число - период времени, за который выпало указанное количество осадков.
  • R24 - Количество осадков - Количество выпавших осадков за 24 часа, мм.
  • S - Снежный покров - Высота снежного покрова, см. При наведении курсора мыши на число - состояние снежного покрова и степень покрытия местности в баллах.